Flag for Germany Weather past 2 weeks in Seevetal, Lower Saxony, Germany

Now
50 °F

Passing clouds.


Feels Like: 43 °F
Forecast: 48 / 50 °F
Wind: 21 mph from West

Location: Hamburg-Finkenwerder

Current Time: Dec 22, 2014 at 8:32:44 PM

Latest Report: Dec 22, 2014 at 7:20 PM


Visibility: 4 mi

Pressure: 29.77 "Hg

Humidity: 100%

Dew point: 50 °F

Location of SeevetalLocation

Historic Weather in Seevetal — Graph

°F

Seevetal temperature yesterday

Past Weeks' High & Low Weather Summary

 TemperatureHumidityPressure
High54 °F (Dec 18, 7:50 PM)100% (Dec 8, 5:50 AM)30.30 "Hg (Dec 8, 5:50 AM)
Low34 °F (Dec 8, 6:20 AM)75% (Dec 10, 5:20 AM)29.18 "Hg (Dec 12, 1:20 PM)
Average43 °F94%29.72 "Hg
* Reported Dec 8 5:50 AM — Dec 22 7:20 PM, Seevetal, Weather by CustomWeather, © 2014

Note: Actual official high and low records may vary slightly from our data, if they occured in-between our weather recording intervals... More about our weather records

Advertising

Seevetal weather history for previous 24 hours

 ConditionsComfort  
Time TempWeatherWind HumidityBarometerVisibility
7:20 PM
Dec 22
50 °FPassing clouds.21 mph100%29.77 "Hg4 mi
6:50 PM50 °FPassing clouds.23 mph100%29.77 "Hg5 mi
6:20 PM50 °FPassing clouds.23 mph100%29.77 "Hg5 mi
5:50 PM50 °FPassing clouds.22 mph100%29.77 "Hg5 mi
5:20 PM50 °FPassing clouds.21 mph100%29.77 "Hg4 mi
4:50 PM50 °FPartly cloudy.23 mph100%29.74 "Hg4 mi
4:20 PM50 °FPartly cloudy.21 mph100%29.74 "Hg3 mi
3:50 PM50 °FDrizzle. Partly sunny.22 mph100%29.74 "Hg2 mi
3:20 PM50 °FRain. Partly sunny.23 mph100%29.71 "Hg3 mi
2:50 PM52 °FRain. Partly sunny.22 mph100%29.71 "Hg4 mi
2:20 PM52 °FRain. Broken clouds.23 mph100%29.71 "Hg4 mi
1:50 PM52 °FRain. Partly sunny.24 mph100%29.71 "Hg2 mi
1:20 PM52 °FRain. Broken clouds.26 mph100%29.71 "Hg3 mi
12:50 PM52 °FRain. Broken clouds.26 mph100%29.71 "Hg2 mi
12:20 PM54 °FRain. Broken clouds.28 mph100%29.71 "Hg2 mi
11:50 AM52 °FRain. Broken clouds.25 mph100%29.71 "Hg3 mi
11:20 AM52 °FRain. Broken clouds.26 mph100%29.71 "Hg3 mi
10:50 AM52 °FDrizzle. Partly sunny.24 mph100%29.71 "Hg2 mi
10:20 AM50 °FDrizzle. Partly sunny.25 mph100%29.71 "Hg2 mi
9:54 AM50 °FDrizzle. Partly sunny.25 mph100%29.71 "Hg1 mi
9:50 AM50 °FDrizzle. Partly sunny.23 mph100%29.71 "Hg3 mi
9:20 AM52 °FDrizzle. Fog.24 mph100%29.71 "Hg2 mi
8:50 AM50 °FDrizzle. Fog.26 mph100%29.74 "Hg2 mi
8:20 AM50 °FDrizzle. Fog.25 mph100%29.74 "Hg2 mi
7:50 AM50 °FPassing clouds.26 mph100%29.74 "Hg3 mi
7:20 AM50 °FPassing clouds.25 mph100%29.74 "Hg2 mi
6:50 AM50 °FPassing clouds.25 mph100%29.74 "Hg3 mi
6:20 AM50 °FPassing clouds.25 mph100%29.77 "Hg2 mi
5:50 AM50 °FRain. Passing clouds.26 mph100%29.77 "Hg2 mi
5:20 AM50 °FRain. Passing clouds.23 mph100%29.77 "Hg2 mi
Weather by CustomWeather, © 2014

See weather overviewHow to use our weather pages